Regional Weather Roundup
Issued by NWS

Home | Current Version | Previous Version | Text Only | Print | Product List | Glossary On
Versions: 1 2 3 4 5 6 7 8 9 10 11 12 13 14 15 16 17 18 19 20 21 22 23 24 25 26 27 28 29 30 31 32 33 34 35 36 37 38 39 40 41 42 43 44 45 46 47 48 49 50
000
ASUS43 KLMK 241102
RWRKY
KENTUCKY REGIONAL WEATHER ROUNDUP
NATIONAL WEATHER SERVICE LOUISVILLE KY
700 AM EDT SUN JUL 24 2016

NOTE "FAIR" INDICATES FEW OR NO CLOUDS BELOW 12,000 FEET
WITH NO SIGNIFICANT WEATHER AND/OR OBSTRUCTIONS TO VISIBILITY.

KYZ001>023-026-027-061>063-070>075-241200-
WESTERN AND SOUTH CENTRAL KENTUCKY

CITY           SKY/WX    TMP DP  RH WIND       PRES   REMARKS
PADUCAH        CLEAR     77  73  87 S5        29.95R
HENDERSON      CLEAR     75  72  88 S3        29.95R
OWENSBORO      CLEAR     77  77 100 CALM      29.98R FOG
HOPKINSVILLE   CLEAR     75  74  96 SE3       29.98R
BOWLING GREEN  CLEAR     75  72  90 CALM      30.00R
GLASGOW        NOT AVBL
$$

KYZ024-025-028>034-038-045-046-053-241200-
NORTH CENTRAL KENTUCKY

CITY           SKY/WX    TMP DP  RH WIND       PRES   REMARKS
LOUISVILLE/SDF CLOUDY    79  75  87 SE3       29.98R FOG
LOUISVILLE/LOU CLOUDY    79  74  84 CALM      29.99R
FORT KNOX      CLEAR     75  73  96 SE2       29.99R
$$

KYZ035>037-039>044-047>052-055>060-089>105-241200-
NORTHEAST KENTUCKY

CITY           SKY/WX    TMP DP  RH WIND       PRES   REMARKS
LEXINGTON      CLEAR     75  72  90 S6        30.02R
COVINGTON      MOCLDY    76  74  93 CALM      30.01S
FRANKFORT      CLOUDY    74  71  91 S3        30.00R FOG
$$

KYZ054-064>069-076>088-106>120-241200-
SOUTHEAST KENTUCKY

CITY           SKY/WX    TMP DP  RH WIND       PRES   REMARKS
JACKSON        CLEAR     73  71  93 CALM      30.05S FOG
LONDON         CLOUDY    72  69  90 CALM      30.05S
SOMERSET       CLEAR     70  70 100 CALM      30.05S
MIDDLESBORO    CLOUDY    71  71 100 CALM      30.07F FOG
MONTICELLO     SUNNY    N/A N/A N/A W9        30.06R
$$





USA.gov is the U.S. government's official web portal to all federal, state and local government web resources and services.